{"data":{"norad_id":59521,"epoch":"2026-09-21T03:24:41.273568Z","epoch_age_seconds":109472,"freshness":"FRESH","line1":"1 59521U 24073L   26264.14214437  .00001123  00000+0  50332-4 0  9997","line2":"2 59521  43.0042 294.5387 0001342 275.5449  84.5249 15.27576865136061","mean_motion":15.27576865,"eccentricity":0.0001342,"inclination_deg":43.0042,"raan_deg":294.5387,"arg_perigee_deg":275.5449,"mean_anomaly_deg":84.5249,"bstar":5.0332e-5,"rev_number":13606,"period_min":94.266942174461,"perigee_km":482.13771093965,"apogee_km":483.97925580739,"semimajor_km":6861.1954833735,"source":"CELESTRAK","updated_at":"2026-09-22T09:00:48.964579Z"}}